Year,Month,Day,Hour,Minute,Value (Times are PST for temperature in C)
2014,08,11,00,00,23.40
2014,08,11,00,01,23.40
2014,08,11,00,02,23.40
2014,08,11,00,03,23.40
2014,08,11,00,04,23.30
2014,08,11,00,05,23.30
2014,08,11,00,06,23.30
2014,08,11,00,07,23.30
2014,08,11,00,08,23.30
2014,08,11,00,09,23.20
2014,08,11,00,10,23.20
2014,08,11,00,11,23.20
2014,08,11,00,12,23.10
2014,08,11,00,13,23.10
2014,08,11,00,14,23.10
2014,08,11,00,15,23.10
2014,08,11,00,16,23.10
2014,08,11,00,17,23.00
2014,08,11,00,18,23.00
2014,08,11,00,19,22.90
2014,08,11,00,20,22.90
2014,08,11,00,21,22.90
2014,08,11,00,22,22.80
2014,08,11,00,23,22.80
2014,08,11,00,24,22.80
2014,08,11,00,25,22.80
2014,08,11,00,26,22.70
2014,08,11,00,27,22.70
2014,08,11,00,28,22.60
2014,08,11,00,29,22.60
2014,08,11,00,30,22.50
2014,08,11,00,31,22.50
2014,08,11,00,32,22.40
2014,08,11,00,33,22.40
2014,08,11,00,34,22.30
2014,08,11,00,35,22.20
2014,08,11,00,36,22.20
2014,08,11,00,37,22.20
2014,08,11,00,38,22.10
2014,08,11,00,39,22.10
2014,08,11,00,40,22.00
2014,08,11,00,41,21.90
2014,08,11,00,42,21.90
2014,08,11,00,43,21.80
2014,08,11,00,44,21.80
2014,08,11,00,45,21.80
2014,08,11,00,46,21.70
2014,08,11,00,47,21.70
2014,08,11,00,48,21.60
2014,08,11,00,49,21.60
2014,08,11,00,50,21.60
2014,08,11,00,51,21.50
2014,08,11,00,52,21.50
2014,08,11,00,53,21.40
2014,08,11,00,54,21.40
2014,08,11,00,55,21.40
2014,08,11,00,56,21.40
2014,08,11,00,57,21.30
2014,08,11,00,58,21.30
2014,08,11,00,59,21.30
2014,08,11,01,00,21.30
2014,08,11,01,01,21.20
2014,08,11,01,02,21.20
2014,08,11,01,03,21.20
2014,08,11,01,04,21.20
2014,08,11,01,05,21.20
2014,08,11,01,06,21.10
2014,08,11,01,07,21.10
2014,08,11,01,08,21.10
2014,08,11,01,09,21.00
2014,08,11,01,10,21.00
2014,08,11,01,11,20.90
2014,08,11,01,12,20.90
2014,08,11,01,13,20.90
2014,08,11,01,14,20.90
2014,08,11,01,15,20.90
2014,08,11,01,16,20.90
2014,08,11,01,17,20.90
2014,08,11,01,18,20.90
2014,08,11,01,19,20.90
2014,08,11,01,20,20.90
2014,08,11,01,21,20.90
2014,08,11,01,22,20.90
2014,08,11,01,23,20.90
2014,08,11,01,24,20.90
2014,08,11,01,25,20.90
2014,08,11,01,26,20.90
2014,08,11,01,27,20.90
2014,08,11,01,28,20.80
2014,08,11,01,29,20.80
2014,08,11,01,30,20.80
2014,08,11,01,31,20.80
2014,08,11,01,32,20.80
2014,08,11,01,33,20.80
2014,08,11,01,34,20.70
2014,08,11,01,35,20.70
2014,08,11,01,36,20.70
2014,08,11,01,37,20.70
2014,08,11,01,38,20.70
2014,08,11,01,39,20.60
2014,08,11,01,40,20.60
2014,08,11,01,41,20.60
2014,08,11,01,42,20.60
2014,08,11,01,43,20.50
2014,08,11,01,44,20.50
2014,08,11,01,45,20.50
2014,08,11,01,46,20.40
2014,08,11,01,47,20.40
2014,08,11,01,48,20.40
2014,08,11,01,49,20.40
2014,08,11,01,50,20.30
2014,08,11,01,51,20.30
2014,08,11,01,52,20.30
2014,08,11,01,53,20.30
2014,08,11,01,54,20.30
2014,08,11,01,55,20.20
2014,08,11,01,56,20.20
2014,08,11,01,57,20.20
2014,08,11,01,58,20.20
2014,08,11,01,59,20.20
2014,08,11,02,00,20.20
2014,08,11,02,01,20.20
2014,08,11,02,02,20.20
2014,08,11,02,03,20.20
2014,08,11,02,04,20.20
2014,08,11,02,05,20.20
2014,08,11,02,06,20.20
2014,08,11,02,07,20.20
2014,08,11,02,08,20.20
2014,08,11,02,09,20.20
2014,08,11,02,10,20.20
2014,08,11,02,11,20.20
2014,08,11,02,12,20.20
2014,08,11,02,13,20.20
2014,08,11,02,14,20.20
2014,08,11,02,15,20.20
2014,08,11,02,16,20.20
2014,08,11,02,17,20.20
2014,08,11,02,18,20.10
2014,08,11,02,19,20.10
2014,08,11,02,20,20.10
2014,08,11,02,21,20.10
2014,08,11,02,22,20.10
2014,08,11,02,23,20.00
2014,08,11,02,24,20.00
2014,08,11,02,25,20.00
2014,08,11,02,26,19.90
2014,08,11,02,27,19.90
2014,08,11,02,28,19.90
2014,08,11,02,29,19.80
2014,08,11,02,30,19.80
2014,08,11,02,31,19.80
2014,08,11,02,32,19.80
2014,08,11,02,33,19.70
2014,08,11,02,34,19.70
2014,08,11,02,35,19.70
2014,08,11,02,36,19.70
2014,08,11,02,37,19.70
2014,08,11,02,38,19.70
2014,08,11,02,39,19.60
2014,08,11,02,40,19.60
2014,08,11,02,41,19.60
2014,08,11,02,42,19.60
2014,08,11,02,43,19.60
2014,08,11,02,44,19.50
2014,08,11,02,45,19.50
2014,08,11,02,46,19.50
2014,08,11,02,47,19.40
2014,08,11,02,48,19.40
2014,08,11,02,49,19.40
2014,08,11,02,50,19.30
2014,08,11,02,51,19.30
2014,08,11,02,52,19.30
2014,08,11,02,53,19.30
2014,08,11,02,54,19.30
2014,08,11,02,55,19.30
2014,08,11,02,56,19.30
2014,08,11,02,57,19.30
2014,08,11,02,58,19.30
2014,08,11,02,59,19.30
2014,08,11,03,00,19.20
2014,08,11,03,01,19.20
2014,08,11,03,02,19.20
2014,08,11,03,03,19.20
2014,08,11,03,04,19.20
2014,08,11,03,05,19.10
2014,08,11,03,06,19.10
2014,08,11,03,07,19.10
2014,08,11,03,08,19.10
2014,08,11,03,09,19.10
2014,08,11,03,10,19.10
2014,08,11,03,11,19.10
2014,08,11,03,12,19.10
2014,08,11,03,13,19.10
2014,08,11,03,14,19.10
2014,08,11,03,15,19.10
2014,08,11,03,16,19.10
2014,08,11,03,17,19.10
2014,08,11,03,18,19.10
2014,08,11,03,19,19.10
2014,08,11,03,20,19.10
2014,08,11,03,21,19.10
2014,08,11,03,22,19.10
2014,08,11,03,23,19.10
2014,08,11,03,24,19.10
2014,08,11,03,25,19.10
2014,08,11,03,26,19.10
2014,08,11,03,27,19.10
2014,08,11,03,28,19.10
2014,08,11,03,29,19.00
2014,08,11,03,30,19.00
2014,08,11,03,31,18.90
2014,08,11,03,32,18.90
2014,08,11,03,33,18.90
2014,08,11,03,34,18.90
2014,08,11,03,35,18.90
2014,08,11,03,36,18.90
2014,08,11,03,37,18.80
2014,08,11,03,38,18.80
2014,08,11,03,39,18.80
2014,08,11,03,40,18.80
2014,08,11,03,41,18.70
2014,08,11,03,42,18.70
2014,08,11,03,43,18.70
2014,08,11,03,44,18.70
2014,08,11,03,45,18.70
2014,08,11,03,46,18.70
2014,08,11,03,47,18.60
2014,08,11,03,48,18.60
2014,08,11,03,49,18.60
2014,08,11,03,50,18.60
2014,08,11,03,51,18.60
2014,08,11,03,52,18.70
2014,08,11,03,53,18.70
2014,08,11,03,54,18.70
2014,08,11,03,55,18.70
2014,08,11,03,56,18.70
2014,08,11,03,57,18.70
2014,08,11,03,58,18.70
2014,08,11,03,59,18.70
2014,08,11,04,00,18.70
2014,08,11,04,01,18.60
2014,08,11,04,02,18.60
2014,08,11,04,03,18.60
2014,08,11,04,04,18.60
2014,08,11,04,05,18.60
2014,08,11,04,06,18.60
2014,08,11,04,07,18.60
2014,08,11,04,08,18.60
2014,08,11,04,09,18.50
2014,08,11,04,10,18.50
2014,08,11,04,11,18.50
2014,08,11,04,12,18.50
2014,08,11,04,13,18.40
2014,08,11,04,14,18.40
2014,08,11,04,15,18.40
2014,08,11,04,16,18.40
2014,08,11,04,17,18.40
2014,08,11,04,18,18.40
2014,08,11,04,19,18.40
2014,08,11,04,20,18.40
2014,08,11,04,21,18.40
2014,08,11,04,22,18.40
2014,08,11,04,23,18.40
2014,08,11,04,24,18.40
2014,08,11,04,25,18.40
2014,08,11,04,26,18.40
2014,08,11,04,27,18.40
2014,08,11,04,28,18.40
2014,08,11,04,29,18.40
2014,08,11,04,30,18.40
2014,08,11,04,31,18.40
2014,08,11,04,32,18.40
2014,08,11,04,33,18.40
2014,08,11,04,34,18.40
2014,08,11,04,35,18.40
2014,08,11,04,36,18.40
2014,08,11,04,37,18.40
2014,08,11,04,38,18.40
2014,08,11,04,39,18.40
2014,08,11,04,40,18.40
2014,08,11,04,41,18.40
2014,08,11,04,42,18.30
2014,08,11,04,43,18.30
2014,08,11,04,44,18.30
2014,08,11,04,45,18.30
2014,08,11,04,46,18.30
2014,08,11,04,47,18.20
2014,08,11,04,48,18.20
2014,08,11,04,49,18.20
2014,08,11,04,50,18.10
2014,08,11,04,51,18.10
2014,08,11,04,52,18.00
2014,08,11,04,53,18.00
2014,08,11,04,54,17.90
2014,08,11,04,55,17.90
2014,08,11,04,56,17.90
2014,08,11,04,57,17.90
2014,08,11,04,58,17.80
2014,08,11,04,59,17.80
2014,08,11,05,00,17.80
2014,08,11,05,01,17.80
2014,08,11,05,02,17.70
2014,08,11,05,03,17.70
2014,08,11,05,04,17.60
2014,08,11,05,05,17.60
2014,08,11,05,06,17.60
2014,08,11,05,07,17.50
2014,08,11,05,08,17.50
2014,08,11,05,09,17.40
2014,08,11,05,10,17.40
2014,08,11,05,11,17.30
2014,08,11,05,12,17.30
2014,08,11,05,13,17.30
2014,08,11,05,14,17.30
2014,08,11,05,15,17.20
2014,08,11,05,16,17.20
2014,08,11,05,17,17.20
2014,08,11,05,18,17.10
2014,08,11,05,19,17.10
2014,08,11,05,20,17.10
2014,08,11,05,21,17.10
2014,08,11,05,22,17.10
2014,08,11,05,23,17.10
2014,08,11,05,24,17.10
2014,08,11,05,25,17.10
2014,08,11,05,26,17.10
2014,08,11,05,27,17.10
2014,08,11,05,28,17.10
2014,08,11,05,29,17.10
2014,08,11,05,30,17.10
2014,08,11,05,31,17.00
2014,08,11,05,32,17.00
2014,08,11,05,33,17.00
2014,08,11,05,34,16.90
2014,08,11,05,35,16.90
2014,08,11,05,36,16.90
2014,08,11,05,37,16.90
2014,08,11,05,38,16.80
2014,08,11,05,39,16.80
2014,08,11,05,40,16.80
2014,08,11,05,41,16.80
2014,08,11,05,42,16.80
2014,08,11,05,43,16.70
2014,08,11,05,44,16.70
2014,08,11,05,45,16.70
2014,08,11,05,46,16.70
2014,08,11,05,47,16.70
2014,08,11,05,48,16.60
2014,08,11,05,49,16.60
2014,08,11,05,50,16.60
2014,08,11,05,51,16.60
2014,08,11,05,52,16.60
2014,08,11,05,53,16.60
2014,08,11,05,54,16.60
2014,08,11,05,55,16.60
2014,08,11,05,56,16.60
2014,08,11,05,57,16.60
2014,08,11,05,58,16.60
2014,08,11,05,59,16.60
2014,08,11,06,00,16.60
2014,08,11,06,01,16.60
2014,08,11,06,02,16.60
2014,08,11,06,03,16.60
2014,08,11,06,04,16.60
2014,08,11,06,05,16.60
2014,08,11,06,06,16.60
2014,08,11,06,07,16.60
2014,08,11,06,08,16.60
2014,08,11,06,09,16.60
2014,08,11,06,10,16.60
2014,08,11,06,11,16.60
2014,08,11,06,12,16.60
2014,08,11,06,13,16.60
2014,08,11,06,14,16.60
2014,08,11,06,15,16.60
2014,08,11,06,16,16.60
2014,08,11,06,17,16.60
2014,08,11,06,18,16.60
2014,08,11,06,19,16.60
2014,08,11,06,20,16.60
2014,08,11,06,21,16.60
2014,08,11,06,22,16.60
2014,08,11,06,23,16.50
2014,08,11,06,24,16.50
2014,08,11,06,25,16.50
2014,08,11,06,26,16.50
2014,08,11,06,27,16.50
2014,08,11,06,28,16.40
2014,08,11,06,29,16.40
2014,08,11,06,30,16.40
2014,08,11,06,31,16.40
2014,08,11,06,32,16.30
2014,08,11,06,33,16.30
2014,08,11,06,34,16.30
2014,08,11,06,35,16.30
2014,08,11,06,36,16.30
2014,08,11,06,37,16.30
2014,08,11,06,38,16.30
2014,08,11,06,39,16.30
2014,08,11,06,40,16.30
2014,08,11,06,41,16.40
2014,08,11,06,42,16.40
2014,08,11,06,43,16.40
2014,08,11,06,44,16.40
2014,08,11,06,45,16.50
2014,08,11,06,46,16.50
2014,08,11,06,47,16.60
2014,08,11,06,48,16.60
2014,08,11,06,49,16.60
2014,08,11,06,50,16.60
2014,08,11,06,51,16.70
2014,08,11,06,52,16.70
2014,08,11,06,53,16.70
2014,08,11,06,54,16.70
2014,08,11,06,55,16.80
2014,08,11,06,56,16.80
2014,08,11,06,57,16.80
2014,08,11,06,58,16.80
2014,08,11,06,59,16.80
2014,08,11,07,00,16.80
2014,08,11,07,01,16.80
2014,08,11,07,02,16.90
2014,08,11,07,03,16.90
2014,08,11,07,04,16.90
2014,08,11,07,05,16.90
2014,08,11,07,06,17.00
2014,08,11,07,07,17.00
2014,08,11,07,08,17.10
2014,08,11,07,09,17.20
2014,08,11,07,10,17.30
2014,08,11,07,11,17.30
2014,08,11,07,12,17.40
2014,08,11,07,13,17.60
2014,08,11,07,14,17.70
2014,08,11,07,15,17.70
2014,08,11,07,16,17.80
2014,08,11,07,17,17.90
2014,08,11,07,18,17.90
2014,08,11,07,19,18.00
2014,08,11,07,20,18.10
2014,08,11,07,21,18.20
2014,08,11,07,22,18.30
2014,08,11,07,23,18.50
2014,08,11,07,24,18.60
2014,08,11,07,25,18.70
2014,08,11,07,26,18.80
2014,08,11,07,27,18.80
2014,08,11,07,28,18.80
2014,08,11,07,29,18.80
2014,08,11,07,30,18.70
2014,08,11,07,31,18.60
2014,08,11,07,32,18.60
2014,08,11,07,33,18.50
2014,08,11,07,34,18.50
2014,08,11,07,35,18.40
2014,08,11,07,36,18.40
2014,08,11,07,37,18.40
2014,08,11,07,38,18.40
2014,08,11,07,39,18.40
2014,08,11,07,40,18.40
2014,08,11,07,41,18.40
2014,08,11,07,42,18.50
2014,08,11,07,43,18.50
2014,08,11,07,44,18.60
2014,08,11,07,45,18.70
2014,08,11,07,46,18.80
2014,08,11,07,47,18.90
2014,08,11,07,48,19.00
2014,08,11,07,49,19.20
2014,08,11,07,50,19.30
2014,08,11,07,51,19.40
2014,08,11,07,52,19.60
2014,08,11,07,53,19.70
2014,08,11,07,54,19.80
2014,08,11,07,55,19.90
2014,08,11,07,56,20.00
2014,08,11,07,57,20.00
2014,08,11,07,58,20.00
2014,08,11,07,59,20.00
2014,08,11,08,00,20.00
2014,08,11,08,01,20.00
2014,08,11,08,02,19.90
2014,08,11,08,03,20.00
2014,08,11,08,04,20.10
2014,08,11,08,05,20.20
2014,08,11,08,06,20.30
2014,08,11,08,07,20.40
2014,08,11,08,08,20.50
2014,08,11,08,09,20.60
2014,08,11,08,10,20.60
2014,08,11,08,11,20.70
2014,08,11,08,12,20.70
2014,08,11,08,13,20.70
2014,08,11,08,14,20.70
2014,08,11,08,15,20.70
2014,08,11,08,16,20.70
2014,08,11,08,17,20.70
2014,08,11,08,18,20.60
2014,08,11,08,19,20.60
2014,08,11,08,20,20.60
2014,08,11,08,21,20.50
2014,08,11,08,22,20.40
2014,08,11,08,23,20.40
2014,08,11,08,24,20.30
2014,08,11,08,25,20.20
2014,08,11,08,26,20.10
2014,08,11,08,27,20.10
2014,08,11,08,28,20.10
2014,08,11,08,29,20.10
2014,08,11,08,30,20.10
2014,08,11,08,31,20.10
2014,08,11,08,32,20.00
2014,08,11,08,33,20.10
2014,08,11,08,34,20.10
2014,08,11,08,35,20.20
2014,08,11,08,36,20.10
2014,08,11,08,37,20.10
2014,08,11,08,38,20.00
2014,08,11,08,39,20.00
2014,08,11,08,40,19.90
2014,08,11,08,41,19.90
2014,08,11,08,42,19.90
2014,08,11,08,43,20.00
2014,08,11,08,44,20.00
2014,08,11,08,45,20.20
2014,08,11,08,46,20.20
2014,08,11,08,47,20.30
2014,08,11,08,48,20.40
2014,08,11,08,49,20.50
2014,08,11,08,50,20.60
2014,08,11,08,51,20.80
2014,08,11,08,52,20.90
2014,08,11,08,53,21.00
2014,08,11,08,54,21.10
2014,08,11,08,55,21.20
2014,08,11,08,56,21.30
2014,08,11,08,57,21.30
2014,08,11,08,58,21.30
2014,08,11,08,59,21.40
2014,08,11,09,00,21.40
2014,08,11,09,01,21.40
2014,08,11,09,02,21.50
2014,08,11,09,03,21.60
2014,08,11,09,04,21.60
2014,08,11,09,05,21.50
2014,08,11,09,06,21.50
2014,08,11,09,07,21.50
2014,08,11,09,08,21.50
2014,08,11,09,09,21.60
2014,08,11,09,10,21.70
2014,08,11,09,11,21.70
2014,08,11,09,12,21.70
2014,08,11,09,13,21.60
2014,08,11,09,14,21.50
2014,08,11,09,15,21.40
2014,08,11,09,16,21.40
2014,08,11,09,17,21.30
2014,08,11,09,18,21.30
2014,08,11,09,19,21.40
2014,08,11,09,20,21.40
2014,08,11,09,21,21.50
2014,08,11,09,22,21.60
2014,08,11,09,23,21.70
2014,08,11,09,24,21.80
2014,08,11,09,25,22.00
2014,08,11,09,26,22.10
2014,08,11,09,27,22.20
2014,08,11,09,28,22.30
2014,08,11,09,29,22.50
2014,08,11,09,30,22.60
2014,08,11,09,31,22.70
2014,08,11,09,32,22.90
2014,08,11,09,33,23.00
2014,08,11,09,34,23.10
2014,08,11,09,35,23.20
2014,08,11,09,36,23.30
2014,08,11,09,37,23.40
2014,08,11,09,38,23.50
2014,08,11,09,39,23.60
2014,08,11,09,40,23.70
2014,08,11,09,41,23.80
2014,08,11,09,42,23.80
2014,08,11,09,43,23.90
2014,08,11,09,44,24.00
2014,08,11,09,45,24.10
2014,08,11,09,46,24.20
2014,08,11,09,47,24.20
2014,08,11,09,48,24.20
2014,08,11,09,49,24.20
2014,08,11,09,50,24.20
2014,08,11,09,51,24.20
2014,08,11,09,52,24.20
2014,08,11,09,53,24.20
2014,08,11,09,54,24.30
2014,08,11,09,55,24.30
2014,08,11,09,56,24.30
2014,08,11,09,57,24.40
2014,08,11,09,58,24.50
2014,08,11,09,59,24.60
2014,08,11,10,00,24.80
2014,08,11,10,01,24.90
2014,08,11,10,02,24.90
2014,08,11,10,03,25.00
2014,08,11,10,04,24.90
2014,08,11,10,05,24.90
2014,08,11,10,06,24.90
2014,08,11,10,07,25.00
2014,08,11,10,08,25.10
2014,08,11,10,09,25.10
2014,08,11,10,10,25.00
2014,08,11,10,11,24.80
2014,08,11,10,12,24.70
2014,08,11,10,13,24.60
2014,08,11,10,14,24.60
2014,08,11,10,15,24.60
2014,08,11,10,16,24.50
2014,08,11,10,17,24.60
2014,08,11,10,18,24.70
2014,08,11,10,19,24.80
2014,08,11,10,20,24.90
2014,08,11,10,21,25.00
2014,08,11,10,22,25.00
2014,08,11,10,23,25.10
2014,08,11,10,24,25.10
2014,08,11,10,25,25.20
2014,08,11,10,26,25.30
2014,08,11,10,27,25.30
2014,08,11,10,28,25.40
2014,08,11,10,29,25.50
2014,08,11,10,30,25.60
2014,08,11,10,31,25.60
2014,08,11,10,32,25.70
2014,08,11,10,33,25.80
2014,08,11,10,34,25.80
2014,08,11,10,35,25.80
2014,08,11,10,36,25.80
2014,08,11,10,37,25.80
2014,08,11,10,38,25.90
2014,08,11,10,39,25.90
2014,08,11,10,40,25.90
2014,08,11,10,41,26.00
2014,08,11,10,42,26.10
2014,08,11,10,43,26.20
2014,08,11,10,44,26.20
2014,08,11,10,45,26.20
2014,08,11,10,46,26.10
2014,08,11,10,47,26.00
2014,08,11,10,48,25.90
2014,08,11,10,49,25.80
2014,08,11,10,50,25.80
2014,08,11,10,51,25.80
2014,08,11,10,52,25.80
2014,08,11,10,53,25.80
2014,08,11,10,54,25.80
2014,08,11,10,55,25.80
2014,08,11,10,56,25.80
2014,08,11,10,57,25.80
2014,08,11,10,58,25.80
2014,08,11,10,59,25.90
2014,08,11,11,00,26.00
2014,08,11,11,01,26.10
2014,08,11,11,02,26.30
2014,08,11,11,03,26.40
2014,08,11,11,04,26.50
2014,08,11,11,05,26.60
2014,08,11,11,06,26.60
2014,08,11,11,07,26.60
2014,08,11,11,08,26.60
2014,08,11,11,09,26.70
2014,08,11,11,10,26.60
2014,08,11,11,11,26.60
2014,08,11,11,12,26.60
2014,08,11,11,13,26.70
2014,08,11,11,14,26.80
2014,08,11,11,15,26.90
2014,08,11,11,16,27.00
2014,08,11,11,17,27.00
2014,08,11,11,18,27.10
2014,08,11,11,19,27.00
2014,08,11,11,20,27.00
2014,08,11,11,21,26.80
2014,08,11,11,22,26.70
2014,08,11,11,23,26.60
2014,08,11,11,24,26.60
2014,08,11,11,25,26.60
2014,08,11,11,26,26.60
2014,08,11,11,27,26.60
2014,08,11,11,28,26.60
2014,08,11,11,29,26.60
2014,08,11,11,30,26.60
2014,08,11,11,31,26.60
2014,08,11,11,32,26.60
2014,08,11,11,33,26.60
2014,08,11,11,34,26.70
2014,08,11,11,35,26.70
2014,08,11,11,36,26.70
2014,08,11,11,37,26.80
2014,08,11,11,38,26.80
2014,08,11,11,39,26.80
2014,08,11,11,40,26.70
2014,08,11,11,41,26.70
2014,08,11,11,42,26.70
2014,08,11,11,43,26.70
2014,08,11,11,44,26.70
2014,08,11,11,45,26.80
2014,08,11,11,46,26.80
2014,08,11,11,47,26.80
2014,08,11,11,48,26.80
2014,08,11,11,49,26.80
2014,08,11,11,50,26.90
2014,08,11,11,51,26.90
2014,08,11,11,52,26.80
2014,08,11,11,53,26.80
2014,08,11,11,54,26.80
2014,08,11,11,55,26.80
2014,08,11,11,56,26.80
2014,08,11,11,57,26.90
2014,08,11,11,58,26.90
2014,08,11,11,59,26.80
2014,08,11,12,00,26.80
2014,08,11,12,01,26.80
2014,08,11,12,02,26.80
2014,08,11,12,03,26.80
2014,08,11,12,04,26.80
2014,08,11,12,05,26.90
2014,08,11,12,06,26.90
2014,08,11,12,07,26.90
2014,08,11,12,08,27.00
2014,08,11,12,09,27.00
2014,08,11,12,10,27.10
2014,08,11,12,11,27.10
2014,08,11,12,12,27.10
2014,08,11,12,13,27.00
2014,08,11,12,14,27.00
2014,08,11,12,15,26.90
2014,08,11,12,16,26.70
2014,08,11,12,17,26.60
2014,08,11,12,18,26.40
2014,08,11,12,19,26.30
2014,08,11,12,20,26.20
2014,08,11,12,21,26.10
2014,08,11,12,22,26.10
2014,08,11,12,23,26.10
2014,08,11,12,24,26.00
2014,08,11,12,25,25.90
2014,08,11,12,26,25.80
2014,08,11,12,27,25.80
2014,08,11,12,28,25.70
2014,08,11,12,29,25.70
2014,08,11,12,30,25.70
2014,08,11,12,31,25.70
2014,08,11,12,32,25.70
2014,08,11,12,33,25.70
2014,08,11,12,34,25.70
2014,08,11,12,35,25.70
2014,08,11,12,36,25.70
2014,08,11,12,37,25.70
2014,08,11,12,38,25.70
2014,08,11,12,39,25.70
2014,08,11,12,40,25.70
2014,08,11,12,41,25.70
2014,08,11,12,42,25.70
2014,08,11,12,43,25.80
2014,08,11,12,44,25.80
2014,08,11,12,45,25.80
2014,08,11,12,46,25.80
2014,08,11,12,47,25.80
2014,08,11,12,48,25.80
2014,08,11,12,49,25.80
2014,08,11,12,50,25.90
2014,08,11,12,51,25.90
2014,08,11,12,52,26.00
2014,08,11,12,53,26.10
2014,08,11,12,54,26.10
2014,08,11,12,55,26.20
2014,08,11,12,56,26.20
2014,08,11,12,57,26.30
2014,08,11,12,58,26.30
2014,08,11,12,59,26.30
2014,08,11,13,00,26.30
2014,08,11,13,01,26.30
2014,08,11,13,02,26.40
2014,08,11,13,03,26.40
2014,08,11,13,04,26.40
2014,08,11,13,05,26.40
2014,08,11,13,06,26.40
2014,08,11,13,07,26.30
2014,08,11,13,08,26.40
2014,08,11,13,09,26.40
2014,08,11,13,10,26.40
2014,08,11,13,11,26.50
2014,08,11,13,12,26.50
2014,08,11,13,13,26.50
2014,08,11,13,14,26.50
2014,08,11,13,15,26.50
2014,08,11,13,16,26.50
2014,08,11,13,17,26.50
2014,08,11,13,18,26.50
2014,08,11,13,19,26.50
2014,08,11,13,20,26.50
2014,08,11,13,21,26.50
2014,08,11,13,22,26.50
2014,08,11,13,23,26.50
2014,08,11,13,24,26.60
2014,08,11,13,25,26.70
2014,08,11,13,26,26.80
2014,08,11,13,27,26.90
2014,08,11,13,28,26.90
2014,08,11,13,29,26.90
2014,08,11,13,30,26.90
2014,08,11,13,31,26.90
2014,08,11,13,32,26.90
2014,08,11,13,33,26.90
2014,08,11,13,34,27.00
2014,08,11,13,35,27.10
2014,08,11,13,36,27.10
2014,08,11,13,37,27.10
2014,08,11,13,38,27.10
2014,08,11,13,39,27.10
2014,08,11,13,40,27.10
2014,08,11,13,41,27.20
2014,08,11,13,42,27.20
2014,08,11,13,43,27.20
2014,08,11,13,44,27.20
2014,08,11,13,45,27.20
2014,08,11,13,46,27.30
2014,08,11,13,47,27.30
2014,08,11,13,48,27.30
2014,08,11,13,49,27.30
2014,08,11,13,50,27.40
2014,08,11,13,51,27.40
2014,08,11,13,52,27.40
2014,08,11,13,53,27.50
2014,08,11,13,54,27.50
2014,08,11,13,55,27.50
2014,08,11,13,56,27.40
2014,08,11,13,57,27.40
2014,08,11,13,58,27.40
2014,08,11,13,59,27.40
2014,08,11,14,00,27.40
2014,08,11,14,01,27.50
2014,08,11,14,02,27.50
2014,08,11,14,03,27.60
2014,08,11,14,04,27.60
2014,08,11,14,05,27.60
2014,08,11,14,06,27.60
2014,08,11,14,07,27.60
2014,08,11,14,08,27.60
2014,08,11,14,09,27.60
2014,08,11,14,10,27.60
2014,08,11,14,11,27.70
2014,08,11,14,12,27.70
2014,08,11,14,13,27.70
2014,08,11,14,14,27.70
2014,08,11,14,15,27.80
2014,08,11,14,16,27.80
2014,08,11,14,17,27.80
2014,08,11,14,18,27.90
2014,08,11,14,19,27.90
2014,08,11,14,20,27.90
2014,08,11,14,21,27.90
2014,08,11,14,22,27.80
2014,08,11,14,23,27.80
2014,08,11,14,24,27.80
2014,08,11,14,25,27.80
2014,08,11,14,26,27.80
2014,08,11,14,27,27.90
2014,08,11,14,28,27.90
2014,08,11,14,29,27.90
2014,08,11,14,30,28.00
2014,08,11,14,31,28.00
2014,08,11,14,32,28.10
2014,08,11,14,33,28.20
2014,08,11,14,34,28.20
2014,08,11,14,35,28.30
2014,08,11,14,36,28.30
2014,08,11,14,37,28.30
2014,08,11,14,38,28.40
2014,08,11,14,39,28.40
2014,08,11,14,40,28.50
2014,08,11,14,41,28.50
2014,08,11,14,42,28.60
2014,08,11,14,43,28.50
2014,08,11,14,44,28.50
2014,08,11,14,45,28.50
2014,08,11,14,46,28.60
2014,08,11,14,47,28.60
2014,08,11,14,48,28.60
2014,08,11,14,49,28.60
2014,08,11,14,50,28.60
2014,08,11,14,51,28.60
2014,08,11,14,52,28.60
2014,08,11,14,53,28.60
2014,08,11,14,54,28.60
2014,08,11,14,55,28.60
2014,08,11,14,56,28.70
2014,08,11,14,57,28.70
2014,08,11,14,58,28.70
2014,08,11,14,59,28.70
2014,08,11,15,00,28.70
2014,08,11,15,01,28.80
2014,08,11,15,02,28.80
2014,08,11,15,03,28.80
2014,08,11,15,04,28.80
2014,08,11,15,05,28.80
2014,08,11,15,06,28.80
2014,08,11,15,07,28.80
2014,08,11,15,08,28.80
2014,08,11,15,09,28.80
2014,08,11,15,10,28.90
2014,08,11,15,11,28.90
2014,08,11,15,12,29.00
2014,08,11,15,13,29.00
2014,08,11,15,14,29.10
2014,08,11,15,15,29.10
2014,08,11,15,16,29.10
2014,08,11,15,17,29.20
2014,08,11,15,18,29.10
2014,08,11,15,19,29.10
2014,08,11,15,20,29.10
2014,08,11,15,21,29.10
2014,08,11,15,22,29.10
2014,08,11,15,23,29.10
2014,08,11,15,24,29.10
2014,08,11,15,25,29.10
2014,08,11,15,26,29.10
2014,08,11,15,27,29.10
2014,08,11,15,28,29.10
2014,08,11,15,29,29.10
2014,08,11,15,30,29.20
2014,08,11,15,31,29.20
2014,08,11,15,32,29.30
2014,08,11,15,33,29.30
2014,08,11,15,34,29.30
2014,08,11,15,35,29.30
2014,08,11,15,36,29.30
2014,08,11,15,37,29.40
2014,08,11,15,38,29.40
2014,08,11,15,39,29.40
2014,08,11,15,40,29.50
2014,08,11,15,41,29.50
2014,08,11,15,42,29.50
2014,08,11,15,43,29.50
2014,08,11,15,44,29.40
2014,08,11,15,45,29.40
2014,08,11,15,46,29.40
2014,08,11,15,47,29.40
2014,08,11,15,48,29.50
2014,08,11,15,49,29.50
2014,08,11,15,50,29.60
2014,08,11,15,51,29.60
2014,08,11,15,52,29.70
2014,08,11,15,53,29.70
2014,08,11,15,54,29.70
2014,08,11,15,55,29.80
2014,08,11,15,56,29.80
2014,08,11,15,57,29.80
2014,08,11,15,58,29.80
2014,08,11,15,59,29.80
2014,08,11,16,00,29.80
2014,08,11,16,01,29.80
2014,08,11,16,02,29.80
2014,08,11,16,03,29.80
2014,08,11,16,04,29.90
2014,08,11,16,05,29.90
2014,08,11,16,06,29.90
2014,08,11,16,07,30.00
2014,08,11,16,08,30.10
2014,08,11,16,09,30.10
2014,08,11,16,10,30.10
2014,08,11,16,11,30.10
2014,08,11,16,12,30.10
2014,08,11,16,13,30.10
2014,08,11,16,14,30.10
2014,08,11,16,15,30.10
2014,08,11,16,16,30.10
2014,08,11,16,17,30.10
2014,08,11,16,18,30.10
2014,08,11,16,19,30.00
2014,08,11,16,20,30.00
2014,08,11,16,21,29.90
2014,08,11,16,22,29.90
2014,08,11,16,23,29.90
2014,08,11,16,24,29.90
2014,08,11,16,25,29.90
2014,08,11,16,26,29.90
2014,08,11,16,27,30.00
2014,08,11,16,28,30.10
2014,08,11,16,29,30.10
2014,08,11,16,30,30.00
2014,08,11,16,31,29.90
2014,08,11,16,32,29.80
2014,08,11,16,33,29.70
2014,08,11,16,34,29.70
2014,08,11,16,35,29.60
2014,08,11,16,36,29.60
2014,08,11,16,37,29.60
2014,08,11,16,38,29.60
2014,08,11,16,39,29.60
2014,08,11,16,40,29.60
2014,08,11,16,41,29.60
2014,08,11,16,42,29.60
2014,08,11,16,43,29.60
2014,08,11,16,44,29.60
2014,08,11,16,45,29.60
2014,08,11,16,46,29.70
2014,08,11,16,47,29.70
2014,08,11,16,48,29.70
2014,08,11,16,49,29.60
2014,08,11,16,50,29.60
2014,08,11,16,51,29.60
2014,08,11,16,52,29.50
2014,08,11,16,53,29.50
2014,08,11,16,54,29.40
2014,08,11,16,55,29.40
2014,08,11,16,56,29.40
2014,08,11,16,57,29.40
2014,08,11,16,58,29.50
2014,08,11,16,59,29.50
2014,08,11,17,00,29.60
2014,08,11,17,01,29.60
2014,08,11,17,02,29.60
2014,08,11,17,03,29.60
2014,08,11,17,04,29.60
2014,08,11,17,05,29.70
2014,08,11,17,06,29.70
2014,08,11,17,07,29.70
2014,08,11,17,08,29.70
2014,08,11,17,09,29.80
2014,08,11,17,10,29.80
2014,08,11,17,11,29.90
2014,08,11,17,12,29.90
2014,08,11,17,13,30.00
2014,08,11,17,14,30.10
2014,08,11,17,15,30.10
2014,08,11,17,16,30.20
2014,08,11,17,17,30.20
2014,08,11,17,18,30.20
2014,08,11,17,19,30.10